Regional Weather Roundup
Issued by NWS

Home | Current Version | Previous Version | Graphics & Text | Print | Product List | Glossary On
Versions: 1 2 3 4 5 6 7 8 9 10 11 12 13 14 15 16 17 18 19 20 21 22 23 24 25 26 27 28 29 30 31 32 33 34 35 36 37 38 39 40 41 42 43 44 45 46 47 48 49 50
000
ASUS45 KPSR 302110
RWRAZ

ARIZONA HOURLY REGIONAL WEATHER ROUNDUP
NATIONAL WEATHER SERVICE PHOENIX AZ
200 PM MST TUE JUN 30 2015

NOTE: FAIR INDICATES FEW OR NO CLOUDS BELOW 12,000 FEET WITH NO
SIGNIFICANT WEATHER AND/OR OBSTRUCTIONS TO VISIBILITY.

AZZ001>003-036-302200-
NORTHWEST ARIZONA

CITY           SKY/WX    TMP DP  RH WIND       PRES   REMARKS
BULLHEAD CITY  SUNNY    109  55  17 S18       29.76F HX 108
KINGMAN        SUNNY    101  51  18 SW14G24   30.01F
$$

AZZ004>008-015-016-018-302200-
NORTH CENTRAL ARIZONA

CITY           SKY/WX    TMP DP  RH WIND       PRES   REMARKS
GRAND CANYON   LGT RAIN  78  58  49 SW7       30.25F
WILLIAMS       SUNNY     88  48  25 VRB6G12   30.32F
PRESCOTT       MOSUNNY   92  54  27 W3        30.12F
FLAGSTAFF      SUNNY     84  50  30 VRB5G17   30.27F
PAYSON         MOSUNNY   91  55  29 VRB6G16   30.14F
PAGE           SUNNY    103  42  12 VRB7      29.99F
$$

AZZ009>014-017-302200-
NORTHEAST ARIZONA

CITY           SKY/WX    TMP DP  RH WIND       PRES   REMARKS
WINSLOW        SUNNY    101  45  15 N12G18    30.05F
SAINT JOHNS    MOSUNNY   93  44  18 VRB5      30.12F
WINDOW ROCK    CLOUDY    85  48  27 NW16G24   30.25R
SHOW LOW       MOSUNNY   86  45  23 W6        30.20F
$$

AZZ023-302200-
GREATER PHOENIX AREA

CITY           SKY/WX    TMP DP  RH WIND       PRES   REMARKS
PHOENIX        MOSUNNY  102  61  25 W9G23     29.82F HX 103
BUCKEYE        SUNNY    102  59  24 W13G22    29.83F HX 102
GLENDALE       MOSUNNY   57  63 100 SW8G17    29.84F
LUKE AFB       SUNNY    102  63  27 W10       29.81F HX 104
DEER VALLEY    SUNNY    102  59  24 SW12G18   29.84F HX 102
SCOTTSDALE     SUNNY    101  59  24 W12G18    29.86F HX 101
MESA-FALCON    MOSUNNY  102  61  25 W14       29.84F HX 103
MESA-GATEWAY   MOSUNNY  100  61  27 W17       29.86F HX 101
$$

AZZ027-028-302200-
SOUTHWEST MARICOPA COUNTY AND PINAL COUNTY

CITY           SKY/WX    TMP DP  RH WIND       PRES   REMARKS
CASA GRANDE    SUNNY    100  61  27 W16G22    29.85F HX 101
GILA BEND      MOSUNNY  100  61  27 W13G21    29.84F HX 101
$$

AZZ503-504-507>509-302200-
SOUTHEAST ARIZONA

CITY           SKY/WX    TMP DP  RH WIND       PRES   REMARKS
TUCSON         SUNNY     96  59  29 NW13      29.95F
DAVIS-MONTHAN  MOSUNNY   95  60  30 NW14      29.94F
RYAN FIELD     SUNNY     97  61  30 NW14      29.96F
NOGALES        MOSUNNY   91  58  32 W6        30.02F
SIERRA VISTA   MOSUNNY   93  46  20 NE5       30.07F
DOUGLAS        MOSUNNY   95  48  20 S10G17    30.00F
SAFFORD        SUNNY    100  51  19 W10G17    29.92F
$$

AZZ020-021-025-026-031-302200-
SOUTHWEST ARIZONA

CITY           SKY/WX    TMP DP  RH WIND       PRES   REMARKS
YUMA           PTSUNNY   95  69  42 S12       29.83F HX 100
$$

CAZ031-033-041-043-047-048-061-302200-
SOUTHERN CALIFORNIA

CITY           SKY/WX    TMP DP  RH WIND       PRES   REMARKS
DOWNTOWN L.A.  SUNNY     84  63  49 VRB3      29.87S
L.A. AIRPORT   MOSUNNY   74  64  71 W13       29.90S
SAN DIEGO      TSTM      71  63  75 SW5       29.95F
BURBANK        SUNNY     94  58  29 S8        29.87F
ONTARIO        PTSUNNY   99  56  23 W14       29.88F
RIVERSIDE      PTSUNNY   99  52  20 W15       29.87F
PALM SPRINGS   PTSUNNY  101  64  29 E14       29.86F HX 104
EL CENTRO NAS  CLOUDY    99  56  23 SW10      29.79F
IMPERIAL       CLOUDY    98  59  27 SW13      29.77F
BLYTHE         PTSUNNY  106  57  20 SW18G28   29.81F HX 105
NEEDLES        SUNNY    110  57  17 SW14G26   29.79F HX 110
$$

NVZ020-UTZ003-302200-
SOUTHERN NEVADA-UTAH

CITY           SKY/WX    TMP DP  RH WIND       PRES   REMARKS
LAS VEGAS      MOSUNNY  109  46  12 S12       29.80F HX 105
SALT LAKE CITY MOSUNNY   99  50  19 NW8       30.01F
$$

NMZ009-TXZ055-302200-
NEW MEXICO-WEST TEXAS

CITY           SKY/WX    TMP DP  RH WIND       PRES   REMARKS
ALBUQUERQUE    MOSUNNY   91  46  21 NW7       30.14F
EL PASO        MOSUNNY   92  50  23 VRB5      30.04F
$$


........................KEY........................
SKY/WX - SKY CONDITION/WEATHER
TMP    - TEMPERATURE IN FAHRENHEIT
DP     - DEW POINT IN FAHRENHEIT
RH     - RELATIVE HUMIDITY IN PERCENT
WIND   - DIRECTION AND SPEED IN MILES PER HOUR (MPH)
VRB    - VARIABLE WIND DIRECTION
PRES   - MEAN SEA LEVEL PRESSURE IN INCHES OF MERCURY
         F - FALLING PRESSURE   R - RISING PRESSURE
         S - STEADY PRESSURE
VSB    - VISIBILITY IN MILES
HX     - HEAT INDEX IN FAHRENHEIT
WCI    - WIND CHILL INDEX IN FAHRENHEIT
TC     - TEMPERATURE IN CELSIUS WHICH IS ALSO KNOWN AS
         TEMPERATURE IN CENTIGRADE
AFB    - AIR FORCE BASE
         LUKE AFB IS LUKE AIR FORCE BASE
         DAVIS-MONTHAN IS DAVIS-MONTHAN AIR FORCE BASE
NAS    - NAVAL AIR STATION
         EL CENTRO NAS IS EL CENTRO NAVAL AIR STATION
N/A    - NOT AVAILABLE



USA.gov is the U.S. government's official web portal to all federal, state and local government web resources and services.